Regional Weather Roundup
Issued by NWS Newport/Morehead, NC

Current Version | Previous Version | Text Only | Print | Product List | Glossary On
Versions: 1 2 3 4 5 6 7 8 9 10 11 12 13 14 15 16 17 18 19 20 21 22 23 24 25 26 27 28 29 30 31 32 33 34 35 36 37 38 39 40 41 42 43 44 45 46 47 48 49 50
000 ASUS42 KMHX 241425 RWRMHX WEATHER ROUNDUP FOR EASTERN NORTH CAROLINA NATIONAL WEATHER SERVICE NEWPORT/MOREHEAD CITY NC 900 AM EST SAT FEB 24 2018 NOTE: "FAIR" INDICATES FEW OR NO CLOUDS BELOW 12,000 FEET WITH NO SIGNIFICANT WEATHER AND/OR OBSTRUCTIONS TO VISIBILITY NCZ015>017-031-032-045>047-102-103-241500- NORTH COAST CITY SKY/WX TMP DP RH WIND PRES REMARKS EDENTON CLOUDY 65 62 91 SW8 30.24F ELIZABETH CITY CLOUDY 64 64 100 SW10 30.23S KITTY HAWK CLOUDY N/A N/A N/A W6 30.22S HAZE MANTEO FAIR 62 62 98 W9 30.24S $$ NCZ045>047-081-094-103-104-241500- CENTRAL COAST CITY SKY/WX TMP DP RH WIND PRES REMARKS FRISCO PTSUNNY 64 63 96 SW7 30.25F $$ NCZ095-097-098-100-101-241500- SOUTHERN COAST CITY SKY/WX TMP DP RH WIND PRES REMARKS BEAUFORT CLOUDY 64 61 90 SW3 30.26S CEDAR ISLAND NOT AVBL JACKSONVILLE FAIR 68 65 90 SW7 30.25S PINEY ISLAND NOT AVBL WILMINGTON FAIR 71 66 84 SW9 30.26S $$ NCZ011>013-027>030-043-044-078>080-089-090>093-098-241500- COASTAL PLAIN CITY SKY/WX TMP DP RH WIND PRES REMARKS AHOSKIE CLOUDY 65 62 90 S5 30.22F CLINTON CLOUDY 64 64 99 SW5 30.26S ELIZABETHTOWN NOT AVBL GOLDSBORO FAIR 65 62 90 SW10 30.23S GREENVILLE CLOUDY 64 63 94 SW9 30.25S HAVELOCK CLOUDY 62 66 100 S7 30.26F KENANSVILLE CLOUDY 63 63 100 SW6 30.26S KINSTON CLOUDY 64 63 94 SW7 30.25S NEW BERN PTSUNNY 64 64 100 SW7 30.26S RICHLANDS CLOUDY 64 64 100 SW9 30.27R FOG ROCKY MOUNT CLOUDY 64 61 90 S12 30.24R WASHINGTON CLOUDY 65 62 91 SW8 30.25F WHITEVILLE CLOUDY 64 64 97 CALM 30.26S $$ AMZ130-135-150-152-154-156-158-170-250-252-270-ANZ085-086-088-633-658-670-241500- MARINE OBSERVATIONS STATION/POSITION TIME TEMP WIND PRES WAVE SWELL AIR SEA DIR/SP/G HT/PER HT/PER (UTC) (F) (DEG/KT/KT) (MB) (FT/S) (FT/S) CHESAPEAKE LIGHT NOT AVBL 64 E VA BEACH 1350 52 49 230/ 10/ 10 1023.7 3/ 8 3/ 8 DUCK 1400 60 45 220/ 7/ 9 1023.2 2 E DUCK 1400 47 N/A 3/ 8 2/13 OREGON INLET 1400 55 52 180/ 8/ 9 1023.9 13E OREGON INLT 1348 47 N/A 4/11 3/11 HATTERAS CG 1400 65 61 240/ 9/ 12 1024.2 DIAMOND BUOY 1410 68 74 260/ 19/ 23 1024.7 CAPE LOOKOUT 1400 190/ 8/ 10 1024.7 BEAUFORT LAB 1400 63 60 240/ 2/ 6 1024.8 30 SE NEW RVR IN 1308 70 68 210/ 6/ 10 1024.9 30 SE NEW RVR IN 1400 69 N/A 5/ 9 2/11 27 SE WRIGHTSVLE 1308 68 68 260/ 8/ 14 1025.0 5 SE WRIGHTSVLE 1408 62 58 220/ 6/ 8 1024.6 225 S CAPE HAT 1350 71 73 200/ 8/ 10 1026.7 5/10 5/10 41 SE CHARLESTON 1410 70 69 200/ 6/ 8 1025.0 $$

USA.gov is the U.S. government's official web portal to all federal, state and local government web resources and services.